Regional Weather Roundup
Issued by NWS Memphis, TN

Home | Current Version | Previous Version | Text Only | Print | Product List | Glossary On
Versions: 1 2 3 4 5 6 7 8 9 10 11 12 13 14 15 16 17 18 19 20 21 22 23 24 25 26 27 28 29 30 31 32 33 34 35 36 37 38 39 40 41 42 43 44 45 46 47 48 49 50
000
ASUS44 KMEG 250510
RWRMEG
MEMPHIS CWA HOURLY WEATHER ROUNDUP
NATIONAL WEATHER SERVICE MEMPHIS TN
1200 AM CDT THU MAY 25 2017

...WEST TENNESSEE...

CITY           SKY/WX    TMP DP  RH WIND       PRES   REMARKS
MEMPHIS INTL   PTCLDY    56  51  84 W5        29.67R
NWS MEMPHIS      N/A     54 N/A N/A MISG        N/A
JACKSON        CLEAR     54  51  90 SW7       29.64S
COVINGTON      CLEAR     57  52  82 W6        29.66R
BOLIVAR        CLEAR     54  50  87 SW3       29.65S
LEXINGTON      CLOUDY    57  52  82 MISG      29.63R
SELMER         CLOUDY    54  52  94 W6        29.64S
SAVANNAH       CLOUDY    57  54  88 CALM      29.64R
DYERSBURG        N/A    N/A N/A N/A MISG        N/A
UNION CITY     CLEAR     55  50  82 W7        29.61S
PARIS          CLOUDY    54  52  94 SW6       29.60S
HUNTINGDON     CLOUDY    55  52  88 W6        29.62R


...EASTERN ARKANSAS...

CITY           SKY/WX    TMP DP  RH WIND       PRES   REMARKS
JONESBORO      CLEAR     56  51  84 W6        29.67S
WEST MEMPHIS   CLEAR     56  52  86 VRB3      29.67R
BATESVILLE     CLEAR     54  48  82 W5        29.71R
WALNUT RIDGE   CLEAR     54  46  76 W8        29.68R
BLYTHEVILLE    CLEAR     56  53  90 W3        29.66R
SEARCY         CLEAR     55  51  86 NW5       29.72R
STUTTGART      CLEAR     57  45  62 W8        29.72S
PINE BLUFF     CLEAR     58  50  75 W3        29.73R
MONTICELLO     CLEAR     55  51  86 W3        29.73R


...NORTH MISSISSIPPI...

CITY           SKY/WX    TMP DP  RH WIND       PRES   REMARKS
TUPELO         CLEAR     56  52  86 SW5       29.68R
OXFORD         CLEAR     54  50  87 SW5       29.71R
BATESVILLE     CLEAR     55  53  93 SW3       29.70S
TUNICA         CLEAR     54  52  94 SW3       29.70S
CLARKSDALE       N/A     57  57 100 MISG      29.71R
CORINTH        CLEAR     55  52  88 W6        29.66S
GREENWOOD      PTCLDY    55  54  96 S3        29.71S
COLUMBUS       PTCLDY    57  56  96 SW6       29.69R
STARKVILLE     PTCLDY    54  54 100 CALM      29.71S
GOLDEN TRIANGL CLOUDY    57  48  72 W6        29.66S


...SOUTHEAST MISSOURI...

CITY           SKY/WX    TMP DP  RH WIND       PRES   REMARKS
KENNETT        CLEAR     55  52  88 W7        29.64S
MALDEN         CLEAR     55  50  82 W5        29.65S
WEST PLAINS    CLEAR     51  48  89 NW5       29.70R
POPLAR BLUFF   CLEAR     54  49  83 W6        29.64S
CAPE GIRARDEAU CLEAR     53  49  86 W6        29.61R


...NORTHWEST ALABAMA...

CITY           SKY/WX    TMP DP  RH WIND       PRES   REMARKS
MUSCLE SHOALS  CLOUDY    56  53  90 W7        29.66R


...MIDDLE TENNESSEE...

CITY           SKY/WX    TMP DP  RH WIND       PRES   REMARKS
NASHVILLE      CLOUDY    58  55  90 NW7       29.61R
CLARKSVILLE    PTCLDY    56  53  90 SW6       29.58S
COLUMBIA       CLOUDY    55  54  94 SW7       29.60S


...WESTERN KENTUCKY...

CITY           SKY/WX    TMP DP  RH WIND       PRES   REMARKS
PADUCAH        PTCLDY    58  49  72 W8        29.59R
FORT CAMPBELL  PTCLDY    54  54 100 SW5       29.58S


...CENTRAL ARKANSAS...

CITY           SKY/WX    TMP DP  RH WIND       PRES   REMARKS
LITTLE ROCK    CLEAR     55  54  96 W5        29.73R


SKY/WX REPORTED AS FAIR MEANS FEW OR NO CLOUDS BELOW
12 THOUSAND FEET.




USA.gov is the U.S. government's official web portal to all federal, state and local government web resources and services.